M I D A S
Marine Information and Data Acquisition System
Tripno 2289 of the Zeeleeuw from 2012-04-12 07:18:30 to 2012-04-12 14:09:51
Back to CruiseResearch ActivitiesStationsMapUnderway DataData graphs

EquipmentUnitsComments
TimeDGPSUTC
LatitudeDGPSDM.mWGS84
LongitudeDGPSDM.mWGS84
SpeedMeteo Stationm/sRelative wind speed
DirectionMeteo StationdegRelative wind direction
TemperatureMeteo Stationdeg CelciusAir temperature
PressureMeteo StationPaAtmospheric pressure
HumidityMeteo Station%Relative humidity
Missing or incorrect values are displayed as -999
Metereological data collected by the RV Zeeleeuw from 2012-04-12 06:46:42 to 2012-04-12 14:20:17
                                                                                    Next 1000 lines
Time Latitude Longitude Speed Direction Temperature Pressure Humidity
2012-04-12 06:46:53 51°13.638 2°56.02 -999 10 3 100120 46
2012-04-12 06:46:58 51°13.638 2°56.02 -999 11 3 100120 46
2012-04-12 06:47:03 51°13.638 2°56.02 -999 13 3 100120 45
2012-04-12 06:47:08 51°13.638 2°56.02 -999 10 3 100120 45
2012-04-12 06:47:13 51°13.638 2°56.02 -999 11 3.1 100120 45
2012-04-12 06:47:18 51°13.638 2°56.02 -999 14 3.1 100120 45
2012-04-12 06:47:22 51°13.637 2°56.02 -999 18 3 100120 45
2012-04-12 06:47:28 51°13.637 2°56.02 -999 18 3 100120 45
2012-04-12 06:47:33 51°13.637 2°56.02 -999 15 3.1 100120 44
2012-04-12 06:47:37 51°13.637 2°56.021 -999 11 3.1 100120 44
2012-04-12 06:47:42 51°13.637 2°56.021 -999 15 3.1 100120 46
2012-04-12 06:47:47 51°13.637 2°56.021 -999 15 3.1 100120 46
2012-04-12 06:47:52 51°13.637 2°56.022 -999 15 3.1 100120 45
2012-04-12 06:47:57 51°13.637 2°56.022 -999 12 3.1 100120 45
2012-04-12 06:48:02 51°13.637 2°56.021 -999 13 3.1 100120 47
2012-04-12 06:48:08 51°13.637 2°56.022 -999 15 3.1 100120 47
2012-04-12 06:48:13 51°13.637 2°56.022 -999 18 3.1 100120 45
2012-04-12 06:48:18 51°13.637 2°56.022 -999 17 3.1 100120 45
2012-04-12 06:48:23 51°13.636 2°56.022 -999 17 3.1 100120 45
2012-04-12 06:48:28 51°13.636 2°56.023 -999 13 3.1 100120 45
2012-04-12 06:48:32 51°13.637 2°56.022 -999 13 3.1 100120 45
2012-04-12 06:48:37 51°13.637 2°56.022 -999 13 3.1 100120 45
2012-04-12 06:48:42 51°13.636 2°56.023 -999 8 3.1 100130 46
2012-04-12 06:48:47 51°13.637 2°56.023 -999 11 3.1 100130 46
2012-04-12 06:48:52 51°13.636 2°56.023 -999 12 3.1 100120 46
2012-04-12 06:48:58 51°13.637 2°56.023 -999 13 3.1 100120 46
2012-04-12 06:49:03 51°13.636 2°56.023 -999 14 3.1 100120 46
2012-04-12 06:49:08 51°13.636 2°56.023 -999 14 3.1 100120 46
2012-04-12 06:49:12 51°13.636 2°56.023 -999 14 3.1 100120 46
2012-04-12 06:49:17 51°13.637 2°56.023 -999 14 3.1 100120 46
2012-04-12 06:49:22 51°13.636 2°56.023 -999 14 3.1 100120 46
2012-04-12 06:49:27 51°13.637 2°56.023 -999 14 3.1 100120 46
2012-04-12 06:49:32 51°13.637 2°56.023 -999 14 -999 -999 -999
2012-04-12 06:49:37 51°13.636 2°56.023 -999 -999 -999 -999 -999
2012-04-12 06:49:42 51°13.636 2°56.023 -999 -999 -999 -999 -999
2012-04-12 06:49:47 51°13.636 2°56.023 -999 -999 -999 -999 -999
2012-04-12 06:49:52 51°13.636 2°56.023 -999 15 -999 -999 -999
2012-04-12 06:49:57 51°13.636 2°56.023 -999 19 -999 -999 -999
2012-04-12 06:50:03 51°13.636 2°56.023 -999 19 -999 -999 -999
2012-04-12 06:50:08 51°13.636 2°56.023 -999 17 -999 -999 -999
2012-04-12 06:50:13 51°13.635 2°56.023 -999 14 3.1 -999 23
2012-04-12 06:50:18 51°13.635 2°56.022 -999 14 3.1 -999 23
2012-04-12 06:50:23 51°13.635 2°56.022 -999 14 3.1 -999 46
2012-04-12 06:50:28 51°13.635 2°56.022 -999 14 3.1 -999 46
2012-04-12 06:50:33 51°13.635 2°56.022 -999 9 3.2 100130 47
2012-04-12 06:50:37 51°13.635 2°56.022 -999 10 3.2 100130 47
2012-04-12 06:50:42 51°13.635 2°56.023 -999 9 3.2 100130 46
2012-04-12 06:50:47 51°13.636 2°56.022 -999 10 3.2 100130 46
2012-04-12 06:50:53 51°13.636 2°56.022 -999 10 3.2 100120 46
2012-04-12 06:50:57 51°13.636 2°56.022 -999 9 3.2 100120 46
2012-04-12 06:51:02 51°13.636 2°56.022 -999 9 3.2 100130 44
2012-04-12 06:51:07 51°13.636 2°56.022 -999 9 3.2 100130 44
2012-04-12 06:51:13 51°13.635 2°56.021 -999 9 3.2 100130 46
2012-04-12 06:51:17 51°13.635 2°56.021 -999 15 3.2 100130 46
2012-04-12 06:51:22 51°13.635 2°56.021 -999 15 3.2 100130 46
2012-04-12 06:51:27 51°13.635 2°56.021 -999 15 3.2 100130 46
2012-04-12 06:51:32 51°13.635 2°56.021 -999 12 3.2 100120 46
2012-04-12 06:51:37 51°13.635 2°56.021 -999 12 3.2 100120 46
2012-04-12 06:51:42 51°13.635 2°56.021 -999 14 3.2 100130 46
2012-04-12 06:51:47 51°13.635 2°56.021 -999 11 3.2 100130 46
2012-04-12 06:51:53 51°13.635 2°56.021 -999 10 3.2 100130 47
2012-04-12 06:51:58 51°13.635 2°56.021 -999 12 3.2 100130 47
2012-04-12 06:52:02 51°13.635 2°56.021 -999 10 3.2 100130 46
2012-04-12 06:52:08 51°13.635 2°56.021 -999 10 3.2 100130 46
2012-04-12 06:52:13 51°13.635 2°56.021 -999 15 3.2 100130 46
2012-04-12 06:52:18 51°13.635 2°56.021 -999 14 3.2 100130 46
2012-04-12 06:52:22 51°13.635 2°56.021 -999 13 3.2 100120 46
2012-04-12 06:52:28 51°13.635 2°56.021 -999 13 3.2 100120 46
2012-04-12 06:52:33 51°13.635 2°56.02 -999 12 3.3 100130 46
2012-04-12 06:52:38 51°13.635 2°56.021 -999 11 3.3 100130 46
2012-04-12 06:52:42 51°13.635 2°56.021 -999 10 3.3 100120 46
2012-04-12 06:52:48 51°13.636 2°56.021 -999 9 3.3 100120 46
2012-04-12 06:52:53 51°13.636 2°56.021 -999 16 3.3 100130 46
2012-04-12 06:52:58 51°13.636 2°56.021 -999 7 3.3 100130 46
2012-04-12 06:53:02 51°13.635 2°56.021 -999 6 3.3 100130 45
2012-04-12 06:53:07 51°13.635 2°56.021 -999 7 3.3 100130 45
2012-04-12 06:53:13 51°13.636 2°56.021 -999 18 3.3 100130 47
2012-04-12 06:53:18 51°13.635 2°56.021 -999 21 3.3 100130 47
2012-04-12 06:53:22 51°13.635 2°56.021 -999 24 3.2 100130 46
2012-04-12 06:53:27 51°13.635 2°56.021 -999 23 3.2 100130 46
2012-04-12 06:53:32 51°13.635 2°56.021 -999 20 3.3 100130 46
2012-04-12 06:53:37 51°13.635 2°56.021 -999 -999 3.3 100130 46
2012-04-12 06:53:42 51°13.635 2°56.021 -999 2 3.3 100130 45
2012-04-12 06:53:47 51°13.635 2°56.021 -999 2 3.3 100130 45
2012-04-12 06:53:52 51°13.636 2°56.021 -999 9 3.3 100130 46
2012-04-12 06:53:58 51°13.635 2°56.021 -999 18 3.3 100130 46
2012-04-12 06:54:03 51°13.635 2°56.021 -999 17 3.3 100130 45
2012-04-12 06:54:07 51°13.635 2°56.021 -999 14 3.3 100130 45
2012-04-12 06:54:12 51°13.635 2°56.021 -999 9 3.3 100130 46
2012-04-12 06:54:18 51°13.635 2°56.02 -999 14 3.3 100130 46
2012-04-12 06:54:23 51°13.635 2°56.02 -999 19 3.3 100130 45
2012-04-12 06:54:27 51°13.635 2°56.02 -999 10 3.3 100130 45
2012-04-12 06:54:32 51°13.636 2°56.02 -999 11 3.3 100130 47
2012-04-12 06:54:37 51°13.635 2°56.02 -999 9 3.3 100130 47
2012-04-12 06:54:43 51°13.635 2°56.021 -999 9 3.3 100130 46
2012-04-12 06:54:47 51°13.635 2°56.021 -999 10 3.3 100130 46
2012-04-12 06:54:52 51°13.635 2°56.021 -999 20 3.3 100130 46
2012-04-12 06:54:58 51°13.635 2°56.021 -999 22 3.3 100130 46
2012-04-12 06:55:03 51°13.636 2°56.02 -999 18 3.3 100130 46
2012-04-12 06:55:07 51°13.636 2°56.02 -999 19 3.3 100130 46
2012-04-12 06:55:13 51°13.636 2°56.021 -999 14 3.3 100130 46
2012-04-12 06:55:18 51°13.636 2°56.021 -999 20 3.3 100130 46
2012-04-12 06:55:22 51°13.636 2°56.021 -999 19 3.3 100130 46
2012-04-12 06:55:27 51°13.636 2°56.021 -999 12 3.3 100130 46
2012-04-12 06:55:32 51°13.636 2°56.021 -999 12 3.3 100130 46
2012-04-12 06:55:38 51°13.636 2°56.021 -999 12 3.3 100130 46
2012-04-12 06:55:42 51°13.636 2°56.021 -999 16 3.3 100130 45
2012-04-12 06:55:47 51°13.636 2°56.021 -999 14 3.3 100130 45
2012-04-12 06:55:52 51°13.636 2°56.021 -999 15 3.3 100130 46
2012-04-12 06:55:58 51°13.636 2°56.021 -999 15 3.3 100130 46
2012-04-12 06:56:03 51°13.636 2°56.021 -999 15 3.3 100130 47
2012-04-12 06:56:07 51°13.636 2°56.021 -999 17 3.3 100130 47
2012-04-12 06:56:12 51°13.635 2°56.021 -999 9 3.3 100130 46
2012-04-12 06:56:17 51°13.635 2°56.021 -999 10 3.3 100130 46
2012-04-12 06:56:22 51°13.636 2°56.021 -999 20 3.3 100130 45
2012-04-12 06:56:27 51°13.636 2°56.021 -999 20 3.3 100130 45
2012-04-12 06:56:32 51°13.636 2°56.021 -999 18 3.3 100130 46
2012-04-12 06:56:38 51°13.636 2°56.021 -999 13 3.3 100130 46
2012-04-12 06:56:42 51°13.636 2°56.02 -999 13 3.3 100130 45
2012-04-12 06:56:48 51°13.636 2°56.02 -999 20 3.3 100130 45
2012-04-12 06:56:52 51°13.636 2°56.02 -999 20 3.3 100130 46
2012-04-12 06:56:57 51°13.637 2°56.02 -999 13 3.3 100130 46
2012-04-12 06:57:02 51°13.636 2°56.021 -999 8 3.3 100130 46
2012-04-12 06:57:07 51°13.636 2°56.021 -999 14 3.3 100130 46
2012-04-12 06:57:12 51°13.636 2°56.021 -999 19 3.4 100130 46
2012-04-12 06:57:17 51°13.635 2°56.021 -999 13 3.4 100130 46
2012-04-12 06:57:22 51°13.636 2°56.021 -999 14 3.4 100140 47
2012-04-12 06:57:27 51°13.636 2°56.021 -999 19 3.4 100140 47
2012-04-12 06:57:33 51°13.635 2°56.022 -999 21 3.3 100130 47
2012-04-12 06:57:37 51°13.635 2°56.022 -999 20 3.3 100130 47
2012-04-12 06:57:42 51°13.635 2°56.022 -999 20 3.4 100140 46
2012-04-12 06:57:47 51°13.635 2°56.022 -999 20 3.4 100140 46
2012-04-12 06:57:53 51°13.636 2°56.022 -999 19 3.4 100130 46
2012-04-12 06:57:58 51°13.636 2°56.021 -999 19 3.4 100130 46
2012-04-12 06:58:02 51°13.636 2°56.021 -999 18 3.4 100130 46
2012-04-12 06:58:08 51°13.636 2°56.021 -999 18 3.4 100130 46
2012-04-12 06:58:13 51°13.636 2°56.021 -999 22 3.4 100130 46
2012-04-12 06:58:18 51°13.636 2°56.021 -999 21 3.4 100130 46
2012-04-12 06:58:22 51°13.636 2°56.021 -999 19 3.4 100130 46
2012-04-12 06:58:27 51°13.636 2°56.021 -999 23 3.4 100130 46
2012-04-12 06:58:32 51°13.636 2°56.021 -999 26 3.4 100140 45
2012-04-12 06:58:38 51°13.636 2°56.021 -999 18 3.4 100140 45
2012-04-12 06:58:42 51°13.636 2°56.021 -999 16 3.4 100140 46
2012-04-12 06:58:47 51°13.636 2°56.021 -999 18 3.4 100140 46
2012-04-12 06:58:52 51°13.636 2°56.021 -999 19 3.4 100130 47
2012-04-12 06:58:57 51°13.636 2°56.021 -999 15 3.4 100130 47
2012-04-12 06:59:03 51°13.636 2°56.02 -999 18 3.4 100130 44
2012-04-12 06:59:06 51°13.636 2°56.02 -999 17 3.4 100130 44
2012-04-12 06:59:12 51°13.636 2°56.02 -999 17 3.4 100140 46
2012-04-12 06:59:18 51°13.636 2°56.02 -999 16 3.4 100140 46
2012-04-12 06:59:22 51°13.636 2°56.02 -999 14 3.4 100130 46
2012-04-12 06:59:27 51°13.636 2°56.02 -999 14 3.4 100130 46
2012-04-12 06:59:32 51°13.637 2°56.02 -999 14 3.4 100140 46
2012-04-12 06:59:37 51°13.636 2°56.02 -999 14 3.4 100140 46
2012-04-12 06:59:42 51°13.636 2°56.02 -999 13 3.4 100130 46
2012-04-12 06:59:47 51°13.636 2°56.02 -999 13 3.4 100130 46
2012-04-12 06:59:52 51°13.636 2°56.02 -999 12 3.4 100140 46
2012-04-12 06:59:57 51°13.637 2°56.02 -999 11 3.4 100140 46
2012-04-12 07:00:03 51°13.636 2°56.02 -999 7 3.5 100140 46
2012-04-12 07:00:08 51°13.636 2°56.02 -999 10 3.5 100140 46
2012-04-12 07:00:12 51°13.636 2°56.02 -999 8 3.5 100140 46
2012-04-12 07:00:18 51°13.636 2°56.02 -999 6 3.5 100140 46
2012-04-12 07:00:23 51°13.636 2°56.02 -999 4 3.5 100140 46
2012-04-12 07:00:28 51°13.636 2°56.02 -999 5 3.5 100140 46
2012-04-12 07:00:32 51°13.636 2°56.02 -999 9 3.5 100140 46
2012-04-12 07:00:38 51°13.636 2°56.02 -999 4 3.5 100140 46
2012-04-12 07:00:43 51°13.636 2°56.02 -999 3 3.5 100140 46
2012-04-12 07:00:47 51°13.636 2°56.02 -999 3 3.5 100140 46
2012-04-12 07:00:52 51°13.636 2°56.02 -999 4 3.5 100140 46
2012-04-12 07:00:57 51°13.636 2°56.02 -999 5 3.5 100140 46
2012-04-12 07:01:03 51°13.636 2°56.019 -999 10 3.5 100140 46
2012-04-12 07:01:07 51°13.636 2°56.02 -999 12 3.5 100140 46
2012-04-12 07:01:12 51°13.636 2°56.02 -999 17 3.5 100140 46
2012-04-12 07:01:17 51°13.636 2°56.02 -999 19 3.5 100140 46
2012-04-12 07:01:22 51°13.636 2°56.02 -999 20 3.5 100140 46
2012-04-12 07:01:28 51°13.636 2°56.02 -999 18 3.5 100140 46
2012-04-12 07:01:33 51°13.636 2°56.02 -999 22 3.5 100140 47
2012-04-12 07:01:37 51°13.636 2°56.02 -999 22 3.5 100140 47
2012-04-12 07:01:42 51°13.636 2°56.02 -999 24 3.5 100140 45
2012-04-12 07:01:47 51°13.636 2°56.02 -999 12 3.5 100140 45
2012-04-12 07:01:52 51°13.636 2°56.02 -999 13 3.5 100140 46
2012-04-12 07:01:57 51°13.636 2°56.02 -999 21 3.5 100140 46
2012-04-12 07:02:02 51°13.635 2°56.02 -999 18 3.5 100140 46
2012-04-12 07:02:07 51°13.635 2°56.02 -999 23 3.5 100140 46
2012-04-12 07:02:12 51°13.636 2°56.02 -999 21 3.5 100140 46
2012-04-12 07:02:18 51°13.636 2°56.02 -999 22 3.5 100140 46
2012-04-12 07:02:23 51°13.636 2°56.02 -999 14 3.5 100140 46
2012-04-12 07:02:27 51°13.636 2°56.02 -999 13 3.5 100140 46
2012-04-12 07:02:32 51°13.636 2°56.02 -999 17 3.6 100140 46
2012-04-12 07:02:38 51°13.635 2°56.02 -999 14 3.6 100140 46
2012-04-12 07:02:42 51°13.636 2°56.02 -999 11 3.6 100140 46
2012-04-12 07:02:47 51°13.636 2°56.02 -999 12 3.6 100140 46
2012-04-12 07:02:52 51°13.636 2°56.02 -999 14 3.6 100140 46
2012-04-12 07:02:58 51°13.635 2°56.021 -999 18 3.6 100140 46
2012-04-12 07:03:03 51°13.635 2°56.021 -999 12 3.6 100140 46
2012-04-12 07:03:07 51°13.636 2°56.021 -999 12 3.6 100140 46
2012-04-12 07:03:12 51°13.636 2°56.021 -999 12 3.6 100140 46
2012-04-12 07:03:17 51°13.635 2°56.021 -999 13 3.6 100140 46
2012-04-12 07:03:23 51°13.636 2°56.021 -999 19 3.6 100140 46
2012-04-12 07:03:27 51°13.636 2°56.021 -999 19 3.6 100140 46
2012-04-12 07:03:32 51°13.635 2°56.021 -999 20 3.6 100140 46
2012-04-12 07:03:37 51°13.635 2°56.021 -999 14 3.6 100140 46
2012-04-12 07:03:43 51°13.635 2°56.021 -999 11 3.6 100140 46
2012-04-12 07:03:48 51°13.635 2°56.021 -999 12 3.6 100140 46
2012-04-12 07:03:52 51°13.636 2°56.021 -999 13 3.6 100140 46
2012-04-12 07:03:57 51°13.635 2°56.02 -999 14 3.6 100140 46
2012-04-12 07:04:02 51°13.636 2°56.02 -999 20 3.6 100140 46
2012-04-12 07:04:08 51°13.636 2°56.02 -999 16 3.6 100140 46
2012-04-12 07:04:13 51°13.636 2°56.02 -999 13 3.6 100140 46
2012-04-12 07:04:17 51°13.636 2°56.02 -999 18 3.6 100140 46
2012-04-12 07:04:22 51°13.636 2°56.02 -999 18 3.6 100140 46
2012-04-12 07:04:27 51°13.635 2°56.021 -999 18 3.6 100140 46
2012-04-12 07:04:33 51°13.635 2°56.021 -999 17 3.6 100140 46
2012-04-12 07:04:38 51°13.635 2°56.02 -999 16 3.6 100140 46
2012-04-12 07:04:42 51°13.635 2°56.02 -999 13 3.6 100140 46
2012-04-12 07:04:47 51°13.636 2°56.02 -999 17 3.6 100140 46
2012-04-12 07:04:52 51°13.635 2°56.02 -999 15 3.6 100140 46
2012-04-12 07:04:57 51°13.635 2°56.02 -999 12 3.6 100140 46
2012-04-12 07:05:03 51°13.635 2°56.02 -999 9 3.6 100140 46
2012-04-12 07:05:07 51°13.635 2°56.02 -999 9 3.6 100140 46
2012-04-12 07:05:12 51°13.635 2°56.02 -999 12 3.6 100140 46
2012-04-12 07:05:17 51°13.635 2°56.019 -999 12 3.6 100140 46
2012-04-12 07:05:23 51°13.636 2°56.019 -999 19 3.6 100140 46
2012-04-12 07:05:28 51°13.636 2°56.02 -999 22 3.6 100140 46
2012-04-12 07:05:32 51°13.636 2°56.02 -999 24 3.6 100140 46
2012-04-12 07:05:38 51°13.636 2°56.02 -999 20 3.6 100140 46
2012-04-12 07:05:43 51°13.636 2°56.02 -999 4 3.6 100140 47
2012-04-12 07:05:48 51°13.636 2°56.02 -999 5 3.6 100140 47
2012-04-12 07:05:52 51°13.636 2°56.02 -999 7 3.6 100140 46
2012-04-12 07:05:57 51°13.636 2°56.02 -999 9 3.6 100140 46
2012-04-12 07:06:02 51°13.636 2°56.02 -999 10 3.6 100140 46
2012-04-12 07:06:07 51°13.636 2°56.02 -999 14 3.6 100140 46
2012-04-12 07:06:12 51°13.636 2°56.02 -999 13 3.6 100140 46
2012-04-12 07:06:17 51°13.636 2°56.02 -999 14 3.6 100140 46
2012-04-12 07:06:22 51°13.636 2°56.02 -999 9 3.7 100140 46
2012-04-12 07:06:28 51°13.636 2°56.019 -999 10 3.7 100140 46
2012-04-12 07:06:33 51°13.636 2°56.02 -999 10 3.7 100140 46
2012-04-12 07:06:37 51°13.636 2°56.02 -999 14 3.7 100140 46
2012-04-12 07:06:42 51°13.636 2°56.02 -999 13 3.7 100140 46
2012-04-12 07:06:48 51°13.636 2°56.02 -999 12 3.7 100140 46
2012-04-12 07:06:53 51°13.636 2°56.02 -999 14 3.7 100140 46
2012-04-12 07:06:57 51°13.635 2°56.019 -999 11 3.7 100140 46
2012-04-12 07:07:03 51°13.636 2°56.02 -999 13 3.7 100140 45
2012-04-12 07:07:08 51°13.636 2°56.02 -999 15 3.7 100140 45
2012-04-12 07:07:13 51°13.636 2°56.02 -999 13 3.7 100140 46
2012-04-12 07:07:17 51°13.636 2°56.02 -999 13 3.7 100140 46
2012-04-12 07:07:22 51°13.636 2°56.02 -999 16 3.7 100140 46
2012-04-12 07:07:27 51°13.636 2°56.02 -999 25 3.7 100140 46
2012-04-12 07:07:32 51°13.636 2°56.02 -999 23 3.7 100140 47
2012-04-12 07:07:38 51°13.636 2°56.02 -999 21 3.7 100140 47
2012-04-12 07:07:42 51°13.636 2°56.02 -999 21 3.7 100140 47
2012-04-12 07:07:48 51°13.636 2°56.02 -999 17 3.7 100140 47
2012-04-12 07:07:52 51°13.636 2°56.02 -999 21 3.7 100140 46
2012-04-12 07:07:58 51°13.636 2°56.02 -999 17 3.7 100140 46
2012-04-12 07:08:02 51°13.636 2°56.02 -999 17 3.7 100140 46
2012-04-12 07:08:07 51°13.636 2°56.02 -999 16 3.7 100140 46
2012-04-12 07:08:12 51°13.636 2°56.02 -999 16 3.7 100140 46
2012-04-12 07:08:17 51°13.636 2°56.02 -999 16 3.7 100140 46
2012-04-12 07:08:23 51°13.636 2°56.02 -999 16 3.8 100140 46
2012-04-12 07:08:27 51°13.636 2°56.02 -999 17 3.8 100140 46
2012-04-12 07:08:32 51°13.636 2°56.02 -999 16 3.7 100140 46
2012-04-12 07:08:37 51°13.636 2°56.02 -999 19 3.7 100140 46
2012-04-12 07:08:43 51°13.636 2°56.02 -999 20 3.8 100140 46
2012-04-12 07:08:48 51°13.636 2°56.02 -999 20 3.8 100140 46
2012-04-12 07:08:52 51°13.636 2°56.02 -999 19 3.8 100140 46
2012-04-12 07:08:57 51°13.636 2°56.02 -999 18 3.8 100140 46
2012-04-12 07:09:03 51°13.636 2°56.02 -999 18 3.8 100140 46
2012-04-12 07:09:08 51°13.636 2°56.02 -999 17 3.8 100140 46
2012-04-12 07:09:13 51°13.636 2°56.02 -999 21 3.8 100140 46
2012-04-12 07:09:17 51°13.636 2°56.02 -999 13 3.8 100140 46
2012-04-12 07:09:22 51°13.636 2°56.02 -999 13 3.8 100140 46
2012-04-12 07:09:27 51°13.636 2°56.02 -999 13 3.8 100140 46
2012-04-12 07:09:32 51°13.636 2°56.02 -999 17 3.8 100140 46
2012-04-12 07:09:37 51°13.636 2°56.02 -999 22 3.8 100140 46
2012-04-12 07:09:42 51°13.636 2°56.02 -999 18 3.8 100140 45
2012-04-12 07:09:47 51°13.636 2°56.02 -999 21 3.8 100140 45
2012-04-12 07:09:53 51°13.636 2°56.02 -999 17 3.8 100140 46
2012-04-12 07:09:58 51°13.636 2°56.02 -999 17 3.8 100140 46
2012-04-12 07:10:02 51°13.636 2°56.02 -999 17 3.8 100140 46
2012-04-12 07:10:08 51°13.636 2°56.02 -999 20 3.8 100140 46
2012-04-12 07:10:13 51°13.636 2°56.02 -999 14 3.8 100140 46
2012-04-12 07:10:18 51°13.636 2°56.02 -999 15 3.8 100140 46
2012-04-12 07:10:22 51°13.636 2°56.02 -999 15 3.8 100140 47
2012-04-12 07:10:28 51°13.636 2°56.02 -999 18 3.8 100140 47
2012-04-12 07:10:33 51°13.636 2°56.02 -999 19 3.8 100140 47
2012-04-12 07:10:38 51°13.636 2°56.02 -999 18 3.8 100140 47
2012-04-12 07:10:42 51°13.636 2°56.02 -999 18 3.8 100140 46
2012-04-12 07:10:48 51°13.636 2°56.019 -999 19 3.8 100140 46
2012-04-12 07:10:52 51°13.636 2°56.019 -999 22 3.8 100140 46
2012-04-12 07:10:57 51°13.636 2°56.019 -999 22 3.8 100140 46
2012-04-12 07:11:02 51°13.636 2°56.019 -999 22 3.8 100140 46
2012-04-12 07:11:07 51°13.636 2°56.019 -999 16 3.8 100140 46
2012-04-12 07:11:12 51°13.636 2°56.019 -999 17 3.8 100140 46
2012-04-12 07:11:18 51°13.636 2°56.019 -999 19 3.8 100140 46
2012-04-12 07:11:23 51°13.636 2°56.019 -999 18 3.8 100140 46
2012-04-12 07:11:27 51°13.636 2°56.019 -999 15 3.8 100140 46
2012-04-12 07:11:33 51°13.636 2°56.019 -999 17 3.9 100140 46
2012-04-12 07:11:37 51°13.636 2°56.019 -999 24 3.9 100140 46
2012-04-12 07:11:43 51°13.636 2°56.019 -999 25 3.9 100140 46
2012-04-12 07:11:48 51°13.636 2°56.019 -999 21 3.9 100140 46
2012-04-12 07:11:52 51°13.636 2°56.019 -999 20 3.9 100140 46
2012-04-12 07:11:58 51°13.636 2°56.019 -999 22 3.9 100140 46
2012-04-12 07:12:03 51°13.636 2°56.019 -999 20 3.9 100140 47
2012-04-12 07:12:07 51°13.636 2°56.019 -999 19 3.9 100140 47
2012-04-12 07:12:12 51°13.636 2°56.019 -999 10 3.9 100140 46
2012-04-12 07:12:17 51°13.636 2°56.019 -999 18 3.9 100140 46
2012-04-12 07:12:22 51°13.636 2°56.019 -999 17 3.9 100140 45
2012-04-12 07:12:27 51°13.636 2°56.019 -999 16 3.9 100140 45
2012-04-12 07:12:32 51°13.636 2°56.019 -999 17 3.9 100140 46
2012-04-12 07:12:38 51°13.636 2°56.019 -999 20 3.9 100140 46
2012-04-12 07:12:42 51°13.636 2°56.019 -999 14 3.9 100140 46
2012-04-12 07:12:48 51°13.636 2°56.019 -999 23 3.9 100140 46
2012-04-12 07:12:53 51°13.636 2°56.019 -999 21 3.9 100140 46
2012-04-12 07:12:58 51°13.636 2°56.019 -999 20 3.9 100140 46
2012-04-12 07:13:02 51°13.636 2°56.019 -999 20 3.9 100140 46
2012-04-12 07:13:08 51°13.636 2°56.019 -999 15 3.9 100140 46
2012-04-12 07:13:13 51°13.636 2°56.019 -999 13 3.9 100140 46
2012-04-12 07:13:18 51°13.637 2°56.019 -999 19 3.9 100140 46
2012-04-12 07:13:22 51°13.637 2°56.019 -999 21 4 100140 46
2012-04-12 07:13:28 51°13.638 2°56.019 -999 21 4 100140 46
2012-04-12 07:13:33 51°13.638 2°56.019 -999 25 3.9 100140 47
2012-04-12 07:13:38 51°13.638 2°56.019 -999 33 3.9 100140 47
2012-04-12 07:13:42 51°13.638 2°56.018 -999 31 3.9 100140 46
2012-04-12 07:13:47 51°13.638 2°56.019 -999 22 3.9 100140 46
2012-04-12 07:13:53 51°13.638 2°56.019 -999 7 4 100140 46
2012-04-12 07:13:58 51°13.638 2°56.019 -999 6 4 100140 46
2012-04-12 07:14:02 51°13.638 2°56.018 -999 6 4 100140 46
2012-04-12 07:14:07 51°13.638 2°56.018 -999 12 4 100140 46
2012-04-12 07:14:12 51°13.638 2°56.018 -999 17 4 100140 46
2012-04-12 07:14:18 51°13.638 2°56.017 -999 17 4 100140 46
2012-04-12 07:14:22 51°13.638 2°56.017 -999 13 4 100140 46
2012-04-12 07:14:27 51°13.638 2°56.017 -999 20 4 100140 46
2012-04-12 07:14:32 51°13.638 2°56.018 -999 21 4 100140 46
2012-04-12 07:14:38 51°13.638 2°56.018 -999 25 4 100140 46
2012-04-12 07:14:42 51°13.638 2°56.018 -999 14 4 100140 46
2012-04-12 07:14:47 51°13.638 2°56.018 -999 14 4 100140 46
2012-04-12 07:14:52 51°13.638 2°56.018 -999 29 4 100140 46
2012-04-12 07:14:57 51°13.638 2°56.018 -999 22 4 100140 46
2012-04-12 07:15:02 51°13.638 2°56.018 -999 17 4 100140 46
2012-04-12 07:15:08 51°13.638 2°56.018 -999 19 4 100140 46
2012-04-12 07:15:12 51°13.638 2°56.018 -999 9 4 100140 47
2012-04-12 07:15:17 51°13.637 2°56.018 -999 10 4 100140 47
2012-04-12 07:15:22 51°13.638 2°56.018 -999 31 4 100150 47
2012-04-12 07:15:28 51°13.637 2°56.018 -999 32 4 100150 47
2012-04-12 07:15:33 51°13.637 2°56.018 -999 25 4 100140 47
2012-04-12 07:15:37 51°13.637 2°56.019 -999 24 4 100140 47
2012-04-12 07:15:42 51°13.637 2°56.019 -999 24 4.1 100140 47
2012-04-12 07:15:47 51°13.638 2°56.019 -999 24 4.1 100140 47
2012-04-12 07:15:53 51°13.638 2°56.019 -999 24 4 100140 46
2012-04-12 07:15:58 51°13.638 2°56.019 -999 29 4 100140 46
2012-04-12 07:16:02 51°13.637 2°56.019 -999 25 4 100140 46
2012-04-12 07:16:07 51°13.637 2°56.019 -999 24 4 100140 46
2012-04-12 07:16:13 51°13.637 2°56.019 -999 34 4.1 100150 46
2012-04-12 07:16:18 51°13.637 2°56.019 -999 33 4.1 100150 46
2012-04-12 07:16:22 51°13.637 2°56.019 -999 27 4.1 100140 46
2012-04-12 07:16:27 51°13.637 2°56.019 -999 30 4.1 100140 46
2012-04-12 07:16:32 51°13.636 2°56.019 -999 30 4.1 100140 46
2012-04-12 07:16:38 51°13.636 2°56.019 -999 31 4.1 100140 46
2012-04-12 07:16:42 51°13.636 2°56.019 -999 32 4.1 100140 46
2012-04-12 07:16:47 51°13.636 2°56.019 -999 45 4.1 100140 46
2012-04-12 07:16:52 51°13.636 2°56.019 -999 36 4.1 100140 46
2012-04-12 07:16:57 51°13.636 2°56.019 -999 24 4.1 100140 46
2012-04-12 07:17:02 51°13.636 2°56.019 -999 26 4.1 100150 46
2012-04-12 07:17:08 51°13.635 2°56.019 -999 27 4.1 100150 46
2012-04-12 07:17:12 51°13.635 2°56.019 -999 22 4.1 100140 46
2012-04-12 07:17:17 51°13.635 2°56.018 -999 23 4.1 100140 46
2012-04-12 07:17:22 51°13.635 2°56.018 -999 38 4.1 100140 46
2012-04-12 07:17:27 51°13.635 2°56.017 -999 34 4.1 100140 46
2012-04-12 07:17:33 51°13.636 2°56.015 -999 36 4.1 100140 46
2012-04-12 07:17:37 51°13.636 2°56.013 -999 37 4.1 100140 46
2012-04-12 07:17:42 51°13.637 2°56.011 -999 37 4.1 100140 45
2012-04-12 07:17:48 51°13.637 2°56.007 -999 37 4.1 100140 45
2012-04-12 07:17:53 51°13.638 2°56.004 -999 41 4.1 100140 46
2012-04-12 07:17:57 51°13.638 2°56.001 -999 38 4.1 100140 46
2012-04-12 07:18:02 51°13.639 2°55.996 -999 39 4.1 100150 46
2012-04-12 07:18:07 51°13.639 2°55.992 -999 41 4.1 100150 46
2012-04-12 07:18:13 51°13.64 2°55.986 -999 23 4.1 100150 46
2012-04-12 07:18:18 51°13.641 2°55.981 -999 54 4.1 100150 46
2012-04-12 07:18:22 51°13.643 2°55.977 -999 23 4.1 100140 46
2012-04-12 07:18:27 51°13.644 2°55.971 0.1 51 4.1 100140 46
2012-04-12 07:18:33 51°13.646 2°55.964 2.4 21 4.2 100140 46
2012-04-12 07:18:38 51°13.647 2°55.958 2.9 45 4.2 100140 46
2012-04-12 07:18:42 51°13.648 2°55.953 2.3 21 4.2 100140 46
2012-04-12 07:18:47 51°13.65 2°55.947 2.5 57 4.2 100140 46
2012-04-12 07:18:52 51°13.651 2°55.94 2.5 43 4.2 100140 45
2012-04-12 07:18:58 51°13.653 2°55.932 2.2 50 4.2 100140 45
2012-04-12 07:19:02 51°13.655 2°55.926 2.2 25 4.2 100150 45
2012-04-12 07:19:07 51°13.657 2°55.92 2.7 52 4.2 100150 45
2012-04-12 07:19:12 51°13.659 2°55.912 3.1 45 4.2 100140 45
2012-04-12 07:19:17 51°13.66 2°55.905 3.4 44 4.2 100140 45
2012-04-12 07:19:22 51°13.663 2°55.898 3 43 4.2 100140 47
2012-04-12 07:19:28 51°13.665 2°55.889 3.2 39 4.2 100140 47
2012-04-12 07:19:32 51°13.668 2°55.883 3.6 42 4.2 100140 47
2012-04-12 07:19:37 51°13.67 2°55.875 3.8 39 4.2 100140 47
2012-04-12 07:19:42 51°13.673 2°55.868 3.3 40 4.2 100140 45
2012-04-12 07:19:48 51°13.676 2°55.858 3.1 43 4.2 100140 45
2012-04-12 07:19:53 51°13.68 2°55.85 3 40 4.2 100140 47
2012-04-12 07:19:57 51°13.682 2°55.844 3.3 42 4.2 100140 47
2012-04-12 07:20:02 51°13.686 2°55.835 3 44 4.2 100140 47
2012-04-12 07:20:08 51°13.69 2°55.826 3.6 42 4.2 100140 47
2012-04-12 07:20:13 51°13.693 2°55.818 3.4 42 4.3 100140 45
2012-04-12 07:20:17 51°13.696 2°55.811 3.5 42 4.3 100140 45
2012-04-12 07:20:22 51°13.7 2°55.803 3.6 40 4.3 100140 44
2012-04-12 07:20:27 51°13.704 2°55.795 3.3 41 4.3 100140 44
2012-04-12 07:20:33 51°13.709 2°55.785 4 39 4.3 100140 45
2012-04-12 07:20:38 51°13.713 2°55.777 3.1 39 4.3 100140 45
2012-04-12 07:20:42 51°13.716 2°55.771 3 40 4.3 100140 47
2012-04-12 07:20:47 51°13.721 2°55.763 2.8 42 4.3 100140 47
2012-04-12 07:20:52 51°13.726 2°55.755 2.7 44 4.3 100140 47
2012-04-12 07:20:58 51°13.731 2°55.746 2.7 51 4.3 100140 47
2012-04-12 07:21:02 51°13.735 2°55.739 2.7 25 4.3 100140 47
2012-04-12 07:21:07 51°13.74 2°55.732 3.3 50 4.3 100140 47
2012-04-12 07:21:12 51°13.744 2°55.724 3.4 21 4.4 100140 45
2012-04-12 07:21:18 51°13.75 2°55.715 2.9 41 4.4 100140 45
2012-04-12 07:21:22 51°13.753 2°55.71 2.9 42 4.4 100140 45
2012-04-12 07:21:27 51°13.758 2°55.702 2.9 51 4.4 100140 45
2012-04-12 07:21:32 51°13.763 2°55.695 3.1 26 4.4 100140 47
2012-04-12 07:21:37 51°13.768 2°55.688 2.9 42 4.4 100140 47
2012-04-12 07:21:42 51°13.773 2°55.682 3.7 41 4.4 100140 45
2012-04-12 07:21:48 51°13.779 2°55.674 3.2 37 4.4 100140 45
2012-04-12 07:21:52 51°13.783 2°55.669 2.9 37 4.4 100140 47
2012-04-12 07:21:57 51°13.789 2°55.664 2.7 41 4.4 100140 47
2012-04-12 07:22:02 51°13.794 2°55.658 3.1 34 4.5 100140 47
2012-04-12 07:22:08 51°13.801 2°55.652 3 41 4.5 100140 47
2012-04-12 07:22:13 51°13.807 2°55.647 2.5 44 4.5 100140 46
2012-04-12 07:22:17 51°13.811 2°55.643 2.2 59 4.5 100140 46
2012-04-12 07:22:22 51°13.817 2°55.639 2.1 38 4.5 100140 46
2012-04-12 07:22:27 51°13.823 2°55.634 1.9 40 4.5 100140 46
2012-04-12 07:22:33 51°13.831 2°55.63 1.8 25 4.5 100140 46
2012-04-12 07:22:38 51°13.837 2°55.626 2.3 43 4.5 100140 46
2012-04-12 07:22:42 51°13.842 2°55.624 1.8 19 4.5 100140 46
2012-04-12 07:22:47 51°13.849 2°55.621 2.2 52 4.5 100140 46
2012-04-12 07:22:53 51°13.857 2°55.618 2.2 24 4.5 100140 46
2012-04-12 07:22:58 51°13.863 2°55.616 2.1 43 4.5 100140 46
2012-04-12 07:23:02 51°13.869 2°55.614 1.8 41 4.5 100140 45
2012-04-12 07:23:07 51°13.876 2°55.612 1.6 37 4.5 100140 45
2012-04-12 07:23:12 51°13.883 2°55.61 1.2 24 4.5 100140 45
2012-04-12 07:23:18 51°13.89 2°55.609 1.4 51 4.5 100140 45
2012-04-12 07:23:22 51°13.895 2°55.608 2.2 21 4.5 100140 47
2012-04-12 07:23:27 51°13.902 2°55.608 1.6 58 4.5 100140 47
2012-04-12 07:23:32 51°13.908 2°55.608 1.6 19 4.6 100140 45
2012-04-12 07:23:38 51°13.915 2°55.608 1.4 40 4.6 100140 45
2012-04-12 07:23:42 51°13.919 2°55.609 1.3 33 4.6 100140 46
2012-04-12 07:23:48 51°13.926 2°55.611 0.6 33 4.6 100140 46
2012-04-12 07:23:52 51°13.93 2°55.612 0.4 26 4.6 100140 47
2012-04-12 07:23:57 51°13.935 2°55.614 0.1 24 4.6 100140 47
2012-04-12 07:24:02 51°13.94 2°55.616 0.1 20 4.6 100140 47
2012-04-12 07:24:07 51°13.944 2°55.618 -999 22 4.6 100140 47
2012-04-12 07:24:13 51°13.95 2°55.621 -999 21 4.7 100140 46
2012-04-12 07:24:17 51°13.953 2°55.623 0.1 18 4.7 100140 46
2012-04-12 07:24:22 51°13.956 2°55.626 0.2 7 4.7 100140 46
2012-04-12 07:24:28 51°13.961 2°55.63 0.6 7 4.7 100140 46
2012-04-12 07:24:33 51°13.964 2°55.633 0.2 6 4.7 100140 46
2012-04-12 07:24:37 51°13.966 2°55.635 0.1 1 4.7 100140 46
2012-04-12 07:24:42 51°13.969 2°55.638 0.7 359 4.7 100140 46
2012-04-12 07:24:47 51°13.972 2°55.641 0.4 356 4.7 100140 46
2012-04-12 07:24:53 51°13.975 2°55.644 1 348 4.7 100140 46
2012-04-12 07:24:58 51°13.977 2°55.647 0.3 348 4.7 100140 46
2012-04-12 07:25:02 51°13.978 2°55.649 0.1 336 4.8 100140 47
2012-04-12 07:25:07 51°13.979 2°55.65 0.1 330 4.8 100140 47
2012-04-12 07:25:13 51°13.98 2°55.65 1.5 333 4.8 100140 46
2012-04-12 07:25:18 51°13.981 2°55.649 1.9 283 4.8 100140 46
2012-04-12 07:25:22 51°13.981 2°55.647 2.4 326 4.9 100140 46
2012-04-12 07:25:27 51°13.981 2°55.645 2.5 327 4.9 100140 46
2012-04-12 07:25:32 51°13.981 2°55.642 2.3 321 4.9 100140 47
2012-04-12 07:25:38 51°13.981 2°55.638 2.3 308 4.9 100140 47
2012-04-12 07:25:42 51°13.982 2°55.634 2.5 20 5 100140 46
2012-04-12 07:25:47 51°13.983 2°55.629 2.5 305 5 100140 46
2012-04-12 07:25:52 51°13.984 2°55.624 2.2 18 5 100140 45
2012-04-12 07:25:57 51°13.985 2°55.619 2.2 307 5 100140 45
2012-04-12 07:26:02 51°13.988 2°55.613 2.3 21 5.1 100140 47
2012-04-12 07:26:07 51°13.99 2°55.606 3.1 304 5.1 100140 47
2012-04-12 07:26:12 51°13.993 2°55.6 2.9 20 5.1 100140 45
2012-04-12 07:26:17 51°13.996 2°55.593 2.7 282 5.1 100140 45
2012-04-12 07:26:22 51°14 2°55.586 2.8 24 5.1 100140 47
2012-04-12 07:26:27 51°14.004 2°55.578 2.7 311 5.1 100140 47
2012-04-12 07:26:32 51°14.009 2°55.569 2.9 21 5.1 100140 48
2012-04-12 07:26:37 51°14.014 2°55.561 2.9 311 5.1 100140 48
2012-04-12 07:26:42 51°14.02 2°55.552 3.2 318 5.2 100140 46
2012-04-12 07:26:48 51°14.028 2°55.541 3.3 308 5.2 100140 46
2012-04-12 07:26:53 51°14.035 2°55.531 3.4 25 5.2 100140 48
2012-04-12 07:26:58 51°14.043 2°55.521 3.4 305 5.2 100140 48
2012-04-12 07:27:02 51°14.049 2°55.513 3.5 317 5.2 100140 48
2012-04-12 07:27:07 51°14.058 2°55.503 3.5 309 5.2 100140 48
2012-04-12 07:27:12 51°14.067 2°55.492 4 316 5.2 100140 48
2012-04-12 07:27:17 51°14.076 2°55.482 4.7 285 5.2 100140 48
2012-04-12 07:27:22 51°14.086 2°55.471 4.5 21 5.3 100140 48
2012-04-12 07:27:27 51°14.097 2°55.46 4 308 5.3 100140 48
2012-04-12 07:27:32 51°14.106 2°55.45 4.6 319 5.3 100140 46
2012-04-12 07:27:38 51°14.12 2°55.437 4.3 305 5.3 100140 46
2012-04-12 07:27:42 51°14.128 2°55.429 4.6 320 5.3 100140 46
2012-04-12 07:27:47 51°14.139 2°55.418 4.3 322 5.3 100140 46
2012-04-12 07:27:52 51°14.15 2°55.408 4.6 324 5.3 100140 46
2012-04-12 07:27:58 51°14.164 2°55.395 3.8 301 5.3 100140 46
2012-04-12 07:28:02 51°14.173 2°55.386 4.9 326 5.3 100140 47
2012-04-12 07:28:07 51°14.185 2°55.375 5.1 306 5.3 100140 47
2012-04-12 07:28:12 51°14.196 2°55.365 4.5 330 5.3 100140 48
2012-04-12 07:28:17 51°14.208 2°55.354 4.9 279 5.3 100140 48
2012-04-12 07:28:22 51°14.22 2°55.343 5.1 326 5.3 100140 45
2012-04-12 07:28:27 51°14.232 2°55.332 5.5 303 5.3 100140 45
2012-04-12 07:28:32 51°14.244 2°55.321 5.2 26 5.4 100140 47
2012-04-12 07:28:37 51°14.256 2°55.31 5.6 303 5.4 100140 47
2012-04-12 07:28:42 51°14.269 2°55.299 5.7 317 5.4 100140 47
2012-04-12 07:28:47 51°14.281 2°55.287 5.5 308 5.4 100140 47
2012-04-12 07:28:52 51°14.293 2°55.276 5.7 320 5.5 100140 46
2012-04-12 07:28:57 51°14.306 2°55.264 5.3 302 5.5 100140 46
2012-04-12 07:29:02 51°14.319 2°55.253 5.5 317 5.5 100140 47
2012-04-12 07:29:07 51°14.331 2°55.241 5.5 307 5.5 100140 47
2012-04-12 07:29:12 51°14.344 2°55.23 5.9 317 5.6 100140 46
2012-04-12 07:29:17 51°14.357 2°55.218 5.4 287 5.6 100140 46
2012-04-12 07:29:22 51°14.37 2°55.207 5 315 5.6 100130 46
2012-04-12 07:29:27 51°14.384 2°55.196 3.9 307 5.6 100130 46
2012-04-12 07:29:32 51°14.397 2°55.184 4.9 26 5.7 100130 46
2012-04-12 07:29:38 51°14.413 2°55.171 5.4 302 5.7 100130 46
2012-04-12 07:29:42 51°14.424 2°55.162 5 20 5.7 100130 46
2012-04-12 07:29:47 51°14.438 2°55.151 5.4 310 5.7 100130 46
2012-04-12 07:29:52 51°14.451 2°55.14 5.4 20 5.7 100130 48
2012-04-12 07:29:57 51°14.465 2°55.129 5 302 5.7 100130 48
2012-04-12 07:30:02 51°14.478 2°55.118 5 21 5.7 100140 48
2012-04-12 07:30:06 51°14.489 2°55.108 5.3 308 5.7 100140 48
2012-04-12 07:30:11 51°14.503 2°55.096 5.1 27 5.7 100130 46
2012-04-12 07:30:17 51°14.52 2°55.082 5.6 280 5.7 100130 46
2012-04-12 07:30:21 51°14.531 2°55.072 5.4 318 5.7 100130 46
2012-04-12 07:30:26 51°14.544 2°55.058 5.8 307 5.7 100130 46
2012-04-12 07:30:31 51°14.558 2°55.043 5.7 24 5.7 100130 46
2012-04-12 07:30:36 51°14.571 2°55.028 5.5 302 5.7 100130 46
2012-04-12 07:30:41 51°14.585 2°55.013 6.2 315 5.7 100130 48
2012-04-12 07:30:46 51°14.599 2°54.997 6 304 5.7 100130 48
2012-04-12 07:30:50 51°14.61 2°54.984 6 315 5.7 100130 47
2012-04-12 07:30:55 51°14.624 2°54.968 5.7 306 5.7 100130 47
2012-04-12 07:31:00 51°14.637 2°54.951 6.8 25 5.7 100130 47
2012-04-12 07:31:05 51°14.651 2°54.934 6 301 5.7 100130 47
2012-04-12 07:31:10 51°14.665 2°54.918 6.1 24 5.6 100130 48
2012-04-12 07:31:14 51°14.676 2°54.904 5.4 279 5.6 100130 48
2012-04-12 07:31:19 51°14.69 2°54.887 6.6 26 5.6 100130 48
2012-04-12 07:31:24 51°14.704 2°54.87 5.8 309 5.6 100130 48
2012-04-12 07:31:29 51°14.717 2°54.853 6.5 24 5.6 100130 47
2012-04-12 07:31:34 51°14.731 2°54.836 5.8 303 5.6 100130 47
2012-04-12 07:31:38 51°14.743 2°54.822 6 316 5.6 100130 46
2012-04-12 07:31:44 51°14.759 2°54.801 5.9 308 5.6 100130 46
2012-04-12 07:31:49 51°14.774 2°54.785 6 25 5.6 100130 46
2012-04-12 07:31:54 51°14.788 2°54.768 6.7 305 5.6 100130 46
2012-04-12 07:31:59 51°14.802 2°54.752 6.1 22 5.6 100130 46
2012-04-12 07:32:04 51°14.816 2°54.735 7 305 5.6 100130 46
2012-04-12 07:32:09 51°14.83 2°54.717 6.7 316 5.6 100130 47
2012-04-12 07:32:14 51°14.844 2°54.7 6.1 285 5.6 100130 47
2012-04-12 07:32:18 51°14.855 2°54.685 7.2 315 5.6 100130 46
2012-04-12 07:32:24 51°14.871 2°54.663 6.2 304 5.6 100130 46
2012-04-12 07:32:29 51°14.885 2°54.645 6.3 316 5.6 100130 47
2012-04-12 07:32:34 51°14.898 2°54.627 7 309 5.6 100130 47
2012-04-12 07:32:39 51°14.911 2°54.608 5.8 315 5.6 100130 49
2012-04-12 07:32:44 51°14.924 2°54.589 6.4 307 5.6 100130 49
2012-04-12 07:32:49 51°14.938 2°54.571 6.1 315 5.7 100130 50
2012-04-12 07:32:54 51°14.951 2°54.553 6.2 310 5.7 100130 50
2012-04-12 07:32:59 51°14.964 2°54.534 6.5 26 5.7 100130 49
2012-04-12 07:33:04 51°14.978 2°54.517 6.4 310 5.7 100130 49
2012-04-12 07:33:09 51°14.992 2°54.498 5.4 316 5.6 100140 48
2012-04-12 07:33:14 51°15.006 2°54.481 5.8 286 5.6 100140 48
2012-04-12 07:33:18 51°15.016 2°54.467 5.7 317 5.7 100140 49
2012-04-12 07:33:24 51°15.033 2°54.446 6 311 5.7 100140 49
2012-04-12 07:33:29 51°15.046 2°54.429 6 316 5.7 100130 47
2012-04-12 07:33:34 51°15.06 2°54.411 5.8 305 5.7 100130 47
2012-04-12 07:33:38 51°15.071 2°54.398 5.9 318 5.7 100140 47
2012-04-12 07:33:43 51°15.085 2°54.381 5.6 305 5.7 100140 47
2012-04-12 07:33:49 51°15.101 2°54.36 5.9 316 5.7 100140 49
2012-04-12 07:33:54 51°15.115 2°54.344 6.3 307 5.7 100140 49
2012-04-12 07:33:58 51°15.126 2°54.331 6.3 316 5.7 100130 48
2012-04-12 07:34:03 51°15.14 2°54.315 5.8 304 5.7 100130 48
2012-04-12 07:34:09 51°15.157 2°54.295 6.1 316 5.8 100140 49
2012-04-12 07:34:14 51°15.171 2°54.279 6.3 280 5.8 100140 49
2012-04-12 07:34:18 51°15.182 2°54.266 6.5 317 5.8 100140 49
2012-04-12 07:34:24 51°15.198 2°54.246 6.8 303 5.8 100140 49
2012-04-12 07:34:29 51°15.212 2°54.229 6 315 5.8 100140 47
2012-04-12 07:34:34 51°15.225 2°54.212 6.1 307 5.8 100140 47
2012-04-12 07:34:38 51°15.236 2°54.198 5 19 5.8 100140 48
2012-04-12 07:34:44 51°15.253 2°54.179 5.4 310 5.8 100140 48
2012-04-12 07:34:48 51°15.264 2°54.166 5.7 25 5.8 100140 46
2012-04-12 07:34:53 51°15.277 2°54.15 6.3 303 5.8 100140 46
2012-04-12 07:34:58 51°15.292 2°54.135 5.9 315 5.8 100140 48
2012-04-12 07:35:03 51°15.305 2°54.12 6.3 303 5.8 100140 48
2012-04-12 07:35:08 51°15.319 2°54.105 5.9 317 5.8 100140 48
2012-04-12 07:35:13 51°15.333 2°54.09 5.3 281 5.8 100140 48
2012-04-12 07:35:18 51°15.348 2°54.075 5.9 317 5.9 100140 46
2012-04-12 07:35:23 51°15.362 2°54.059 5.3 304 5.9 100140 46
2012-04-12 07:35:29 51°15.378 2°54.04 6.2 316 5.9 100140 46
2012-04-12 07:35:34 51°15.392 2°54.025 5.6 310 5.9 100140 46
2012-04-12 07:35:38 51°15.403 2°54.012 5.6 317 5.9 100140 46
2012-04-12 07:35:44 51°15.419 2°53.993 5.5 308 5.9 100140 46
2012-04-12 07:35:49 51°15.433 2°53.977 5.4 317 6 100140 47
2012-04-12 07:35:53 51°15.444 2°53.965 6.2 310 6 100140 47
2012-04-12 07:35:58 51°15.457 2°53.949 7 23 6 100140 48
2012-04-12 07:36:04 51°15.473 2°53.93 6.9 306 6 100140 48
2012-04-12 07:36:09 51°15.487 2°53.914 6.2 319 6 100140 48
2012-04-12 07:36:14 51°15.501 2°53.899 6.4 309 6 100140 48
2012-04-12 07:36:18 51°15.513 2°53.886 6.2 19 6.1 100140 46
2012-04-12 07:36:23 51°15.526 2°53.871 7.1 310 6.1 100140 46
2012-04-12 07:36:29 51°15.543 2°53.853 6.6 325 6.1 100140 47
2012-04-12 07:36:34 51°15.557 2°53.837 7.9 328 6.1 100140 47
2012-04-12 07:36:38 51°15.568 2°53.825 9.6 323 6.2 100140 48
2012-04-12 07:36:42 51°15.579 2°53.812 8.8 323 6.2 100140 48
2012-04-12 07:36:48 51°15.595 2°53.793 8.8 323 6.3 100140 46
2012-04-12 07:36:53 51°15.608 2°53.777 8.6 305 6.3 100140 46
2012-04-12 07:36:59 51°15.624 2°53.759 8.5 322 6.3 100140 48
2012-04-12 07:37:04 51°15.638 2°53.743 7.9 307 6.3 100140 48
2012-04-12 07:37:09 51°15.651 2°53.729 7.9 322 6.4 100140 47
2012-04-12 07:37:15 51°15.667 2°53.71 7.7 280 6.4 100140 47
2012-04-12 07:37:19 51°15.677 2°53.699 8.7 321 6.4 100130 48
2012-04-12 07:37:24 51°15.69 2°53.684 9.4 323 6.4 100130 48
2012-04-12 07:37:29 51°15.702 2°53.669 9.5 321 6.4 100130 47
2012-04-12 07:37:34 51°15.714 2°53.653 7.8 322 6.4 100130 47
2012-04-12 07:37:39 51°15.726 2°53.638 8.9 320 6.5 100130 48
2012-04-12 07:37:44 51°15.738 2°53.623 9 321 6.5 100130 48
2012-04-12 07:37:49 51°15.749 2°53.609 7.6 320 6.5 100130 48
2012-04-12 07:37:54 51°15.76 2°53.595 7.8 309 6.5 100130 48
2012-04-12 07:37:59 51°15.771 2°53.582 7.1 321 6.6 100130 48
2012-04-12 07:38:04 51°15.781 2°53.569 7.3 305 6.6 100130 48
2012-04-12 07:38:09 51°15.791 2°53.558 8.5 319 6.6 100130 48
2012-04-12 07:38:14 51°15.801 2°53.547 7 284 6.6 100130 48
2012-04-12 07:38:19 51°15.81 2°53.536 6.7 320 6.6 100130 47
2012-04-12 07:38:24 51°15.819 2°53.526 6.4 303 6.6 100130 47
2012-04-12 07:38:29 51°15.827 2°53.516 7 318 6.7 100130 48
2012-04-12 07:38:35 51°15.837 2°53.505 6.7 309 6.7 100130 48
2012-04-12 07:38:39 51°15.843 2°53.498 6.1 317 6.7 100120 48
2012-04-12 07:38:44 51°15.85 2°53.489 5.7 305 6.7 100120 48
2012-04-12 07:38:49 51°15.857 2°53.481 5.9 316 6.8 100140 48
2012-04-12 07:38:54 51°15.863 2°53.473 6.4 307 6.8 100140 48
2012-04-12 07:38:59 51°15.87 2°53.466 5.9 318 6.8 100140 46
2012-04-12 07:39:04 51°15.877 2°53.458 6.3 309 6.8 100140 46
2012-04-12 07:39:09 51°15.883 2°53.451 5.8 316 6.8 100130 47
2012-04-12 07:39:15 51°15.889 2°53.443 6.2 279 6.8 100130 47
2012-04-12 07:39:19 51°15.894 2°53.438 5.8 21 6.9 100140 47
2012-04-12 07:39:23 51°15.899 2°53.434 5.6 308 6.9 100140 47
2012-04-12 07:39:29 51°15.906 2°53.427 5.4 26 6.9 100140 48
2012-04-12 07:39:34 51°15.911 2°53.421 6.2 304 6.9 100140 48
2012-04-12 07:39:39 51°15.916 2°53.416 5.4 26 6.9 100140 48
2012-04-12 07:39:44 51°15.922 2°53.411 5.5 304 6.9 100140 48
2012-04-12 07:39:49 51°15.927 2°53.406 5.8 27 7 100140 49
2012-04-12 07:39:54 51°15.932 2°53.402 6 309 7 100140 49
2012-04-12 07:39:59 51°15.937 2°53.398 5.4 26 7 100140 48
2012-04-12 07:40:04 51°15.942 2°53.395 5 304 7 100140 48
2012-04-12 07:40:09 51°15.948 2°53.391 5.8 27 7 100140 47
2012-04-12 07:40:14 51°15.953 2°53.388 5 279 7 100140 47
2012-04-12 07:40:19 51°15.958 2°53.385 5.1 20 7 100140 47
2012-04-12 07:40:23 51°15.962 2°53.383 5.4 305 7 100140 47
2012-04-12 07:40:29 51°15.968 2°53.38 4.6 18 7.1 100140 48
2012-04-12 07:40:34 51°15.973 2°53.377 5.3 309 7.1 100140 48
2012-04-12 07:40:39 51°15.978 2°53.375 5.2 19 7.1 100140 49
2012-04-12 07:40:44 51°15.984 2°53.372 5.5 302 7.1 100140 49
2012-04-12 07:40:49 51°15.989 2°53.37 5.4 22 7.1 100140 48
2012-04-12 07:40:54 51°15.995 2°53.367 5.7 311 7.1 100140 48
2012-04-12 07:40:59 51°16 2°53.364 5.3 19 7.1 100140 49
2012-04-12 07:41:03 51°16.004 2°53.362 6.4 309 7.1 100140 49
2012-04-12 07:41:09 51°16.012 2°53.358 5.4 27 7.1 100140 47
2012-04-12 07:41:14 51°16.017 2°53.356 6 286 7.1 100140 47
2012-04-12 07:41:19 51°16.023 2°53.353 6.2 22 7.2 100140 48
2012-04-12 07:41:23 51°16.028 2°53.35 6.2 306 7.2 100140 48
2012-04-12 07:41:29 51°16.035 2°53.346 6.4 23 7.2 100140 47
2012-04-12 07:41:34 51°16.042 2°53.343 5.4 308 7.2 100140 47
2012-04-12 07:41:39 51°16.048 2°53.34 5.7 23 7.2 100140 48
2012-04-12 07:41:44 51°16.054 2°53.336 6.4 305 7.2 100140 48
2012-04-12 07:41:49 51°16.061 2°53.332 5.9 23 7.2 100140 47
2012-04-12 07:41:54 51°16.068 2°53.328 6 309 7.2 100140 47
2012-04-12 07:41:59 51°16.075 2°53.324 5.9 24 7.2 100140 49
2012-04-12 07:42:04 51°16.082 2°53.32 5.7 308 7.2 100140 49
2012-04-12 07:42:09 51°16.088 2°53.316 6 20 7.2 100140 48
2012-04-12 07:42:14 51°16.095 2°53.312 6.8 279 7.2 100140 48
2012-04-12 07:42:19 51°16.102 2°53.307 5.9 21 7.2 100140 48
2012-04-12 07:42:23 51°16.107 2°53.304 5.2 307 7.2 100140 48
2012-04-12 07:42:30 51°16.116 2°53.297 5.5 27 7.2 100140 47
2012-04-12 07:42:34 51°16.122 2°53.294 5.7 305 7.2 100140 47
2012-04-12 07:42:39 51°16.129 2°53.289 5.4 21 7.2 100140 48
2012-04-12 07:42:43 51°16.135 2°53.285 5.2 308 7.2 100140 48
2012-04-12 07:42:48 51°16.141 2°53.279 6.3 21 7.2 100140 47
2012-04-12 07:42:53 51°16.148 2°53.274 6.3 310 7.2 100140 47
2012-04-12 07:43:00 51°16.157 2°53.267 6.1 23 7.3 100140 48
2012-04-12 07:43:04 51°16.163 2°53.262 5.8 304 7.3 100140 48
2012-04-12 07:43:08 51°16.168 2°53.258 5.4 316 7.3 100140 49
2012-04-12 07:43:14 51°16.176 2°53.252 5.6 283 7.3 100140 49
2012-04-12 07:43:19 51°16.183 2°53.246 5.8 25 7.3 100140 49
2012-04-12 07:43:24 51°16.19 2°53.24 5.9 310 7.3 100140 49
2012-04-12 07:43:28 51°16.195 2°53.236 6.6 23 7.3 100130 49
2012-04-12 07:43:35 51°16.205 2°53.228 6 306 7.3 100130 49
2012-04-12 07:43:39 51°16.211 2°53.224 6.6 19 7.3 100140 49
2012-04-12 07:43:44 51°16.218 2°53.218 6 303 7.3 100140 49
2012-04-12 07:43:48 51°16.223 2°53.214 6.6 20 7.3 100140 47
2012-04-12 07:43:54 51°16.231 2°53.208 6.4 310 7.3 100140 47
2012-04-12 07:43:59 51°16.238 2°53.203 5.9 24 7.3 100140 47
2012-04-12 07:44:04 51°16.245 2°53.198 6.9 308 7.3 100140 47
2012-04-12 07:44:08 51°16.251 2°53.194 6.3 21 7.3 100140 47
2012-04-12 07:44:14 51°16.26 2°53.188 5.7 280 7.3 100140 47
2012-04-12 07:44:19 51°16.266 2°53.183 6.4 26 7.3 100130 46
2012-04-12 07:44:24 51°16.273 2°53.178 5.8 302 7.3 100130 46
2012-04-12 07:44:28 51°16.279 2°53.174 6 27 7.3 100140 47
2012-04-12 07:44:34 51°16.287 2°53.169 5.9 308 7.3 100140 47
2012-04-12 07:44:39 51°16.294 2°53.164 6.1 21 7.3 100140 49
2012-04-12 07:44:44 51°16.301 2°53.159 6.7 310 7.3 100140 49
2012-04-12 07:44:49 51°16.308 2°53.155 7.2 26 7.4 100140 47
2012-04-12 07:44:54 51°16.315 2°53.151 6.1 309 7.4 100140 47
2012-04-12 07:44:59 51°16.321 2°53.146 6.1 20 7.4 100140 48
2012-04-12 07:45:04 51°16.329 2°53.142 6.4 306 7.4 100140 48
2012-04-12 07:45:09 51°16.336 2°53.138 6.3 26 7.4 100140 49
2012-04-12 07:45:14 51°16.342 2°53.134 6.2 280 7.4 100140 49
2012-04-12 07:45:19 51°16.349 2°53.13 6.4 26 7.4 100140 48
2012-04-12 07:45:24 51°16.356 2°53.126 6 302 7.4 100140 48
2012-04-12 07:45:29 51°16.363 2°53.122 6.1 22 7.4 100130 49
2012-04-12 07:45:34 51°16.37 2°53.118 6.7 304 7.4 100130 49
2012-04-12 07:45:39 51°16.377 2°53.114 6.6 20 7.4 100140 49
2012-04-12 07:45:44 51°16.384 2°53.11 6.7 308 7.4 100140 49
2012-04-12 07:45:48 51°16.39 2°53.107 5.8 18 7.4 100140 47
2012-04-12 07:45:54 51°16.399 2°53.101 5.8 302 7.4 100140 47
2012-04-12 07:45:59 51°16.407 2°53.097 5.6 26 7.4 100140 47
2012-04-12 07:46:04 51°16.415 2°53.092 6.2 284 7.4 100140 47
2012-04-12 07:46:09 51°16.422 2°53.087 5.7 21 7.4 100140 48
2012-04-12 07:46:14 51°16.43 2°53.082 6.1 279 7.4 100140 48
2012-04-12 07:46:19 51°16.438 2°53.077 6.5 25 7.5 100140 47
2012-04-12 07:46:24 51°16.446 2°53.071 6.8 310 7.5 100140 47
2012-04-12 07:46:29 51°16.454 2°53.066 6.4 24 7.5 100140 48
2012-04-12 07:46:34 51°16.463 2°53.061 7.2 280 7.5 100140 48
2012-04-12 07:46:39 51°16.471 2°53.056 7.1 25 7.5 100140 47
2012-04-12 07:46:44 51°16.479 2°53.051 6.8 304 7.5 100140 47
2012-04-12 07:46:48 51°16.486 2°53.046 6.4 22 7.5 100130 50
2012-04-12 07:46:54 51°16.496 2°53.04 8.1 309 7.5 100130 50
2012-04-12 07:46:59 51°16.504 2°53.034 7.3 22 7.5 100140 47
2012-04-12 07:47:04 51°16.513 2°53.029 7.5 304 7.5 100140 47
2012-04-12 07:47:09 51°16.522 2°53.023 6.8 21 7.5 100130 48
2012-04-12 07:47:14 51°16.53 2°53.018 7.1 304 7.5 100130 48
2012-04-12 07:47:19 51°16.539 2°53.012 7.2 19 7.5 100130 50
2012-04-12 07:47:24 51°16.547 2°53.007 7.3 280 7.5 100130 50
2012-04-12 07:47:29 51°16.556 2°53 7.2 23 7.5 100130 47
2012-04-12 07:47:34 51°16.564 2°52.994 6.5 301 7.5 100130 47
2012-04-12 07:47:39 51°16.572 2°52.988 7.1 24 7.5 100130 48
2012-04-12 07:47:44 51°16.581 2°52.982 6.8 280 7.5 100130 48
2012-04-12 07:47:49 51°16.59 2°52.975 6.9 21 7.5 100130 48
2012-04-12 07:47:54 51°16.598 2°52.969 6.5 305 7.5 100130 48
2012-04-12 07:47:59 51°16.606 2°52.962 7.2 20 7.5 100130 48
2012-04-12 07:48:04 51°16.615 2°52.956 6.2 309 7.5 100130 48
2012-04-12 07:48:08 51°16.621 2°52.951 7.1 315 7.5 100130 48
2012-04-12 07:48:14 51°16.631 2°52.943 6.6 280 7.5 100130 48
2012-04-12 07:48:19 51°16.639 2°52.937 7.4 19 7.5 100130 47
2012-04-12 07:48:24 51°16.647 2°52.93 6.8 310 7.5 100130 47
2012-04-12 07:48:28 51°16.653 2°52.925 7.3 26 7.5 100130 48
2012-04-12 07:48:34 51°16.662 2°52.917 6.6 284 7.5 100130 48
2012-04-12 07:48:39 51°16.669 2°52.91 6.4 315 7.5 100130 46
2012-04-12 07:48:44 51°16.677 2°52.904 7 305 7.5 100130 46
2012-04-12 07:48:49 51°16.684 2°52.897 7.3 23 7.5 100140 48
2012-04-12 07:48:54 51°16.691 2°52.891 6.1 280 7.5 100140 48
2012-04-12 07:48:59 51°16.698 2°52.884 6.2 20 7.5 100130 47
2012-04-12 07:49:04 51°16.706 2°52.877 7.6 303 7.5 100130 47
2012-04-12 07:49:09 51°16.713 2°52.87 6.6 315 7.5 100140 47
2012-04-12 07:49:14 51°16.72 2°52.863 6.4 285 7.5 100140 47
2012-04-12 07:49:19 51°16.727 2°52.857 7.1 315 7.5 100140 48
2012-04-12 07:49:24 51°16.735 2°52.85 6.5 304 7.5 100140 48
2012-04-12 07:49:29 51°16.741 2°52.844 6.2 19 7.5 100140 46
2012-04-12 07:49:34 51°16.748 2°52.837 6 304 7.5 100140 46
2012-04-12 07:49:39 51°16.754 2°52.831 6.6 316 7.5 100140 45
2012-04-12 07:49:44 51°16.762 2°52.824 5.7 309 7.5 100140 45
2012-04-12 07:49:49 51°16.769 2°52.818 6.5 21 7.5 100140 47
2012-04-12 07:49:54 51°16.776 2°52.812 6.7 309 7.5 100140 47
2012-04-12 07:49:59 51°16.783 2°52.806 6.2 315 7.5 100140 46
2012-04-12 07:50:04 51°16.79 2°52.799 6.5 283 7.5 100140 46
2012-04-12 07:50:09 51°16.797 2°52.793 6.2 316 7.5 100140 48
2012-04-12 07:50:14 51°16.804 2°52.787 6.5 283 7.5 100140 48
2012-04-12 07:50:19 51°16.811 2°52.781 6.6 28 7.5 100140 48
2012-04-12 07:50:24 51°16.818 2°52.774 7.3 302 7.5 100140 48
2012-04-12 07:50:28 51°16.823 2°52.769 7.7 315 7.5 100140 48
2012-04-12 07:50:34 51°16.832 2°52.762 6.1 310 7.5 100140 48
2012-04-12 07:50:39 51°16.839 2°52.755 6.5 21 7.6 100140 47
2012-04-12 07:50:44 51°16.846 2°52.749 6.6 310 7.6 100140 47
2012-04-12 07:50:49 51°16.853 2°52.743 7.1 316 7.6 100130 46
2012-04-12 07:50:54 51°16.86 2°52.737 6.2 285 7.6 100130 46
2012-04-12 07:50:59 51°16.868 2°52.732 6.9 25 7.6 100130 47
2012-04-12 07:51:04 51°16.875 2°52.726 6.3 305 7.6 100130 47
2012-04-12 07:51:09 51°16.883 2°52.72 6.5 21 7.5 100140 47
2012-04-12 07:51:14 51°16.89 2°52.715 7.1 283 7.5 100140 47
2012-04-12 07:51:19 51°16.898 2°52.709 6.7 18 7.6 100140 47
2012-04-12 07:51:24 51°16.906 2°52.704 5.9 303 7.6 100140 47
2012-04-12 07:51:28 51°16.912 2°52.7 5.9 21 7.5 100140 47
2012-04-12 07:51:34 51°16.921 2°52.694 6.2 303 7.5 100140 47
2012-04-12 07:51:39 51°16.929 2°52.689 7 19 7.5 100140 47
2012-04-12 07:51:44 51°16.937 2°52.684 6.8 302 7.5 100140 47
2012-04-12 07:51:49 51°16.945 2°52.68 6.1 19 7.6 100140 47
2012-04-12 07:51:54 51°16.953 2°52.676 6.5 303 7.6 100140 47
2012-04-12 07:51:59 51°16.96 2°52.671 5.8 21 7.6 100140 47
2012-04-12 07:52:04 51°16.968 2°52.666 6.2 286 7.6 100140 47
2012-04-12 07:52:09 51°16.976 2°52.661 6.4 26 7.6 100140 47
2012-04-12 07:52:14 51°16.984 2°52.656 7 282 7.6 100140 47
2012-04-12 07:52:19 51°16.992 2°52.65 6.7 26 7.6 100140 45
2012-04-12 07:52:24 51°17 2°52.645 6.8 283 7.6 100140 45
2012-04-12 07:52:28 51°17.007 2°52.641 6.1 25 7.6 100140 47
2012-04-12 07:52:34 51°17.016 2°52.634 6.2 304 7.6 100140 47
2012-04-12 07:52:39 51°17.024 2°52.629 7.1 22 7.6 100140 47
2012-04-12 07:52:44 51°17.032 2°52.624 5.6 305 7.6 100140 47
2012-04-12 07:52:48 51°17.038 2°52.62 6.6 19 7.6 100140 47
2012-04-12 07:52:54 51°17.048 2°52.613 6.1 304 7.6 100140 47
2012-04-12 07:52:59 51°17.056 2°52.608 6 315 7.6 100140 47
2012-04-12 07:53:04 51°17.064 2°52.602 5.7 304 7.6 100140 47
2012-04-12 07:53:08 51°17.07 2°52.598 6.4 316 7.6 100140 46
2012-04-12 07:53:14 51°17.079 2°52.591 7.6 310 7.6 100140 46
2012-04-12 07:53:19 51°17.087 2°52.585 6.6 316 7.6 100140 46
2012-04-12 07:53:24 51°17.095 2°52.579 6 309 7.6 100140 46
2012-04-12 07:53:29 51°17.103 2°52.573 6.4 316 7.6 100140 46
2012-04-12 07:53:34 51°17.11 2°52.567 7.1 286 7.6 100140 46
2012-04-12 07:53:39 51°17.118 2°52.561 6.4 315 7.6 100140 46
2012-04-12 07:53:44 51°17.126 2°52.555 7.1 307 7.6 100140 46
2012-04-12 07:53:49 51°17.133 2°52.548 7.2 21 7.6 100140 46
2012-04-12 07:53:54 51°17.141 2°52.542 5.9 285 7.6 100140 46
2012-04-12 07:53:59 51°17.149 2°52.536 6.5 316 7.6 100140 46
2012-04-12 07:54:04 51°17.156 2°52.529 6.6 302 7.6 100140 46
2012-04-12 07:54:09 51°17.163 2°52.522 6.9 317 7.6 100140 47
2012-04-12 07:54:14 51°17.171 2°52.516 7 280 7.6 100140 47
2012-04-12 07:54:19 51°17.179 2°52.509 7.1 19 7.6 100140 46
2012-04-12 07:54:24 51°17.186 2°52.503 5.9 308 7.6 100140 46
2012-04-12 07:54:28 51°17.192 2°52.497 5.9 318 7.6 100140 46
2012-04-12 07:54:34 51°17.202 2°52.489 6 309 7.6 100140 46
2012-04-12 07:54:39 51°17.209 2°52.483 7.1 316 7.6 100140 46
2012-04-12 07:54:44 51°17.217 2°52.476 6.3 284 7.6 100140 46
2012-04-12 07:54:48 51°17.223 2°52.471 6.1 317 7.6 100140 46
2012-04-12 07:54:54 51°17.232 2°52.463 6.4 307 7.6 100140 46
2012-04-12 07:54:59 51°17.24 2°52.456 7.2 315 7.6 100140 44
2012-04-12 07:55:04 51°17.247 2°52.45 6.3 304 7.6 100140 44
2012-04-12 07:55:08 51°17.253 2°52.445 6.5 315 7.6 100140 47
2012-04-12 07:55:14 51°17.263 2°52.437 6.3 282 7.6 100140 47
2012-04-12 07:55:19 51°17.27 2°52.431 6.3 21 7.6 100140 47
2012-04-12 07:55:24 51°17.278 2°52.425 6.2 309 7.6 100140 47
2012-04-12 07:55:29 51°17.286 2°52.42 5.8 24 7.6 100140 46
2012-04-12 07:55:34 51°17.295 2°52.416 6.5 285 7.6 100140 46
2012-04-12 07:55:39 51°17.303 2°52.412 6.5 26 7.6 100140 46
2012-04-12 07:55:44 51°17.311 2°52.409 7.1 309 7.6 100140 46
2012-04-12 07:55:49 51°17.319 2°52.406 6.3 20 7.6 100140 46
2012-04-12 07:55:54 51°17.328 2°52.403 6.7 285 7.6 100140 46
2012-04-12 07:55:59 51°17.337 2°52.401 6.1 27 7.6 100140 46
2012-04-12 07:56:04 51°17.345 2°52.398 6.9 307 7.6 100140 46
2012-04-12 07:56:08 51°17.352 2°52.397 6.4 22 7.7 100140 47
2012-04-12 07:56:14 51°17.362 2°52.394 6 286 7.7 100140 47
2012-04-12 07:56:19 51°17.371 2°52.392 6.7 27 7.7 100140 47
2012-04-12 07:56:24 51°17.379 2°52.39 6.3 302 7.7 100140 47
2012-04-12 07:56:29 51°17.387 2°52.388 6.8 24 7.7 100140 46
2012-04-12 07:56:34 51°17.396 2°52.385 7 304 7.7 100140 46
2012-04-12 07:56:39 51°17.405 2°52.383 6.4 24 7.6 100140 46
2012-04-12 07:56:44 51°17.413 2°52.381 6.9 280 7.6 100140 46
2012-04-12 07:56:48 51°17.42 2°52.38 7.1 20 7.6 100140 47
2012-04-12 07:56:54 51°17.43 2°52.378 6 310 7.6 100140 47
2012-04-12 07:56:59 51°17.439 2°52.376 6 19 7.6 100140 47
2012-04-12 07:57:04 51°17.448 2°52.374 6.5 304 7.6 100140 47
2012-04-12 07:57:08 51°17.454 2°52.373 5.9 27 7.6 100140 47
2012-04-12 07:57:14 51°17.465 2°52.371 6.5 303 7.6 100140 47
2012-04-12 07:57:19 51°17.473 2°52.369 6 23 7.6 100140 46
2012-04-12 07:57:24 51°17.482 2°52.367 6.6 306 7.6 100140 46
2012-04-12 07:57:29 51°17.49 2°52.366 5.8 28 7.6 100140 47
2012-04-12 07:57:34 51°17.499 2°52.364 3.3 282 7.6 100140 47
2012-04-12 07:57:39 51°17.507 2°52.363 5.9 18 7.6 100140 45
2012-04-12 07:57:44 51°17.516 2°52.361 6.5 310 7.6 100140 45
2012-04-12 07:57:48 51°17.522 2°52.36 6.5 20 7.6 100140 47
2012-04-12 07:57:54 51°17.532 2°52.358 7 284 7.6 100140 47
2012-04-12 07:57:59 51°17.541 2°52.357 5.4 23 7.7 100140 47
2012-04-12 07:58:04 51°17.55 2°52.356 7.1 308 7.7 100140 47
2012-04-12 07:58:09 51°17.558 2°52.354 6.3 26 7.6 100140 44
2012-04-12 07:58:14 51°17.567 2°52.353 5.7 304 7.6 100140 44
2012-04-12 07:58:19 51°17.575 2°52.351 6 26 7.7 100140 46
2012-04-12 07:58:24 51°17.584 2°52.349 6.4 304 7.7 100140 46
2012-04-12 07:58:29 51°17.592 2°52.348 6.6 25 7.7 100140 47
2012-04-12 07:58:34 51°17.601 2°52.346 6.3 308 7.7 100140 47
2012-04-12 07:58:39 51°17.609 2°52.344 6.2 22 7.7 100140 46
2012-04-12 07:58:44 51°17.618 2°52.342 7 304 7.7 100140 46
2012-04-12 07:58:49 51°17.626 2°52.341 6.9 22 7.7 100150 45
2012-04-12 07:58:54 51°17.635 2°52.339 6.7 308 7.7 100150 45
2012-04-12 07:58:59 51°17.643 2°52.337 6.4 24 7.7 100150 47
2012-04-12 07:59:04 51°17.652 2°52.335 6 303 7.7 100150 47
2012-04-12 07:59:09 51°17.66 2°52.334 6.5 19 7.7 100150 45
2012-04-12 07:59:14 51°17.668 2°52.332 6.5 303 7.7 100150 45
2012-04-12 07:59:19 51°17.677 2°52.33 6 21 7.7 100140 46
2012-04-12 07:59:24 51°17.685 2°52.328 6.3 310 7.7 100140 46
2012-04-12 07:59:29 51°17.693 2°52.326 6.7 25 7.7 100140 46
2012-04-12 07:59:34 51°17.702 2°52.324 7 306 7.7 100140 46
2012-04-12 07:59:39 51°17.71 2°52.323 6.1 25 7.7 100140 45
2012-04-12 07:59:44 51°17.718 2°52.321 6.6 304 7.7 100140 45
2012-04-12 07:59:49 51°17.727 2°52.32 6.8 23 7.7 100140 47
2012-04-12 07:59:54 51°17.735 2°52.318 6.6 285 7.7 100140 47
2012-04-12 07:59:59 51°17.743 2°52.317 6.3 26 7.7 100150 46
2012-04-12 08:00:04 51°17.752 2°52.315 6.7 302 7.7 100150 46
2012-04-12 08:00:08 51°17.759 2°52.314 7 22 7.7 100140 45
2012-04-12 08:00:14 51°17.769 2°52.313 6 282 7.7 100140 45
2012-04-12 08:00:19 51°17.777 2°52.312 5.6 24 7.7 100140 44
2012-04-12 08:00:24 51°17.785 2°52.311 6.3 310 7.7 100140 44
2012-04-12 08:00:29 51°17.794 2°52.311 6.4 20 7.7 100150 45
2012-04-12 08:00:34 51°17.802 2°52.31 6.6 285 7.7 100150 45
2012-04-12 08:00:39 51°17.811 2°52.31 5.9 23 7.7 100140 45
2012-04-12 08:00:44 51°17.819 2°52.309 7.1 306 7.7 100140 45
2012-04-12 08:00:49 51°17.828 2°52.308 5.6 26 7.7 100140 45
2012-04-12 08:00:54 51°17.836 2°52.308 7.1 283 7.7 100140 45
2012-04-12 08:00:59 51°17.844 2°52.308 6.7 22 7.7 100140 45
2012-04-12 08:01:04 51°17.853 2°52.308 6.4 305 7.7 100140 45
2012-04-12 08:01:09 51°17.861 2°52.307 7.1 23 7.7 100140 46
2012-04-12 08:01:14 51°17.87 2°52.307 7.1 307 7.7 100140 46
2012-04-12 08:01:19 51°17.879 2°52.306 6.6 26 7.7 100150 46
2012-04-12 08:01:24 51°17.887 2°52.305 5.7 309 7.7 100150 46
2012-04-12 08:01:28 51°17.894 2°52.305 5.9 24 7.7 100140 46
2012-04-12 08:01:34 51°17.904 2°52.304 6.3 302 7.7 100140 46
2012-04-12 08:01:39 51°17.913 2°52.303 7.2 21 7.7 100140 46
2012-04-12 08:01:44 51°17.922 2°52.302 6.4 305 7.7 100140 46
2012-04-12 08:01:48 51°17.928 2°52.301 7 25 7.7 100140 46
2012-04-12 08:01:54 51°17.938 2°52.299 5.9 309 7.7 100140 46
2012-04-12 08:01:59 51°17.946 2°52.298 6.4 20 7.7 100150 46
2012-04-12 08:02:04 51°17.955 2°52.296 6.4 304 7.7 100150 46
2012-04-12 08:02:08 51°17.961 2°52.295 6.8 26 7.7 100140 45
2012-04-12 08:02:14 51°17.972 2°52.292 6.1 284 7.7 100140 45
2012-04-12 08:02:19 51°17.98 2°52.29 6.7 18 7.7 100150 46
2012-04-12 08:02:24 51°17.989 2°52.289 6.3 303 7.7 100150 46
2012-04-12 08:02:29 51°17.997 2°52.287 6.9 27 7.7 100150 46
2012-04-12 08:02:34 51°18.005 2°52.284 5.9 285 7.7 100150 46
2012-04-12 08:02:39 51°18.014 2°52.282 6.7 26 7.7 100140 46
2012-04-12 08:02:44 51°18.022 2°52.28 6.3 308 7.7 100140 46
2012-04-12 08:02:49 51°18.031 2°52.278 6.3 24 7.7 100150 46
2012-04-12 08:02:54 51°18.039 2°52.276 5.8 285 7.7 100150 46
2012-04-12 08:02:59 51°18.047 2°52.273 6.6 22 7.8 100140 44
2012-04-12 08:03:04 51°18.056 2°52.271 6.1 307 7.8 100140 44
2012-04-12 08:03:09 51°18.064 2°52.269 5.9 23 7.7 100150 45
2012-04-12 08:03:14 51°18.073 2°52.267 6.1 310 7.7 100150 45
2012-04-12 08:03:19 51°18.081 2°52.266 6.2 20 7.7 100140 46
2012-04-12 08:03:24 51°18.089 2°52.264 5.6 307 7.7 100140 46
2012-04-12 08:03:29 51°18.098 2°52.262 6.1 25 7.7 100150 44
2012-04-12 08:03:34 51°18.106 2°52.26 7 308 7.7 100150 44
2012-04-12 08:03:39 51°18.115 2°52.257 6.2 27 7.7 100140 45
2012-04-12 08:03:44 51°18.123 2°52.256 5.8 282 7.7 100140 45
2012-04-12 08:03:48 51°18.13 2°52.254 5.7 26 7.7 100140 46
2012-04-12 08:03:54 51°18.14 2°52.252 5.9 303 7.7 100140 46
2012-04-12 08:03:59 51°18.149 2°52.25 6.3 19 7.7 100150 46
2012-04-12 08:04:04 51°18.158 2°52.249 6.7 304 7.7 100150 46
2012-04-12 08:04:08 51°18.164 2°52.248 5.9 28 7.7 100140 45
2012-04-12 08:04:14 51°18.174 2°52.245 6.7 280 7.7 100140 45
2012-04-12 08:04:19 51°18.183 2°52.244 6.2 26 7.7 100140 46
2012-04-12 08:04:24 51°18.191 2°52.242 6 308 7.7 100140 46
2012-04-12 08:04:29 51°18.2 2°52.241 5.7 22 7.8 100140 45
2012-04-12 08:04:34 51°18.208 2°52.24 5.6 281 7.8 100140 45
2012-04-12 08:04:39 51°18.216 2°52.238 6.1 26 7.8 100150 47
2012-04-12 08:04:44 51°18.225 2°52.236 6.2 310 7.8 100150 47
2012-04-12 08:04:49 51°18.234 2°52.235 6.7 25 7.8 100140 45
2012-04-12 08:04:54 51°18.242 2°52.234 6 286 7.8 100140 45
2012-04-12 08:04:59 51°18.25 2°52.233 6 21 7.8 100140 46
2012-04-12 08:05:04 51°18.259 2°52.231 5.8 305 7.8 100140 46
2012-04-12 08:05:09 51°18.268 2°52.23 5.9 24 7.8 100150 45
2012-04-12 08:05:14 51°18.276 2°52.228 6.3 309 7.8 100150 45
2012-04-12 08:05:19 51°18.285 2°52.227 5.3 22 7.8 100140 46
2012-04-12 08:05:24 51°18.293 2°52.226 6.8 308 7.8 100140 46
2012-04-12 08:05:29 51°18.301 2°52.225 6.7 21 7.8 100150 46
2012-04-12 08:05:34 51°18.31 2°52.224 6 302 7.8 100150 46
2012-04-12 08:05:39 51°18.318 2°52.224 6.3 23 7.8 100140 43
2012-04-12 08:05:44 51°18.327 2°52.223 5.6 282 7.8 100140 43
2012-04-12 08:05:48 51°18.334 2°52.222 5.7 23 7.8 100140 46
2012-04-12 08:05:54 51°18.344 2°52.222 5.6 304 7.8 100140 46
2012-04-12 08:05:59 51°18.352 2°52.221 5.4 26 7.8 100140 46
2012-04-12 08:06:04 51°18.361 2°52.221 5.6 310 7.8 100140 46
2012-04-12 08:06:08 51°18.368 2°52.22 5.4 21 7.8 100150 43
2012-04-12 08:06:14 51°18.378 2°52.22 6.3 286 7.8 100150 43
2012-04-12 08:06:19 51°18.387 2°52.218 6 24 7.8 100140 45
2012-04-12 08:06:24 51°18.395 2°52.217 6.1 302 7.8 100140 45
2012-04-12 08:06:29 51°18.404 2°52.217 5.3 23 7.8 100150 44
2012-04-12 08:06:34 51°18.412 2°52.216 6.2 307 7.8 100150 44
2012-04-12 08:06:39 51°18.421 2°52.215 5.8 21 7.8 100140 47
2012-04-12 08:06:44 51°18.429 2°52.214 5.4 308 7.8 100140 47
2012-04-12 08:06:49 51°18.438 2°52.213 5.7 26 7.8 100140 44
2012-04-12 08:06:54 51°18.446 2°52.212 5.9 281 7.8 100140 44
2012-04-12 08:06:59 51°18.455 2°52.21 6.6 27 7.8 100140 46
2012-04-12 08:07:04 51°18.463 2°52.21 6.2 303 7.8 100140 46
2012-04-12 08:07:08 51°18.47 2°52.208 7 20 7.8 100140 46
2012-04-12 08:07:14 51°18.48 2°52.207 6.8 308 7.8 100140 46
2012-04-12 08:07:19 51°18.489 2°52.205 6.3 23 7.8 100150 46
2012-04-12 08:07:24 51°18.497 2°52.203 5.9 306 7.8 100150 46
2012-04-12 08:07:29 51°18.506 2°52.202 6.7 23 7.8 100150 46
2012-04-12 08:07:34 51°18.514 2°52.2 7.1 309 7.8 100150 46
2012-04-12 08:07:39 51°18.522 2°52.198 6.2 20 7.8 100140 46
2012-04-12 08:07:44 51°18.531 2°52.196 6.9 280 7.8 100140 46
2012-04-12 08:07:49 51°18.539 2°52.194 6.3 21 7.8 100140 45
2012-04-12 08:07:54 51°18.548 2°52.192 6.7 306 7.8 100140 45
2012-04-12 08:07:59 51°18.556 2°52.19 5.7 23 7.8 100140 44
2012-04-12 08:08:04 51°18.564 2°52.188 6 308 7.8 100140 44
2012-04-12 08:08:08 51°18.571 2°52.186 6.5 21 7.8 100140 46
2012-04-12 08:08:14 51°18.581 2°52.184 6.4 286 7.8 100140 46
2012-04-12 08:08:19 51°18.59 2°52.181 6.1 19 7.8 100150 44
2012-04-12 08:08:24 51°18.598 2°52.179 6.7 304 7.8 100150 44
2012-04-12 08:08:29 51°18.606 2°52.177 6.1 24 7.8 100140 45
2012-04-12 08:08:34 51°18.615 2°52.175 6 286 7.8 100140 45
2012-04-12 08:08:39 51°18.623 2°52.173 6.1 22 7.8 100140 46
2012-04-12 08:08:44 51°18.632 2°52.17 7 305 7.8 100140 46
2012-04-12 08:08:49 51°18.64 2°52.169 5.7 26 7.8 100140 45
2012-04-12 08:08:54 51°18.648 2°52.167 6.1 286 7.8 100140 45
2012-04-12 08:08:59 51°18.657 2°52.165 6 20 7.8 100140 45
2012-04-12 08:09:04 51°18.666 2°52.163 6 307 7.8 100140 45
2012-04-12 08:09:08 51°18.673 2°52.161 6.5 20 7.8 100140 44
2012-04-12 08:09:14 51°18.682 2°52.159 6.4 306 7.8 100140 44
2012-04-12 08:09:19 51°18.691 2°52.158 7.2 27 7.8 100150 44
2012-04-12 08:09:24 51°18.699 2°52.156 5.8 309 7.8 100150 44
2012-04-12 08:09:29 51°18.707 2°52.155 5.8 24 7.8 100140 45
2012-04-12 08:09:34 51°18.716 2°52.153 5.6 281 7.8 100140 45
2012-04-12 08:09:39 51°18.724 2°52.152 5.8 26 7.8 100140 46
2012-04-12 08:09:44 51°18.733 2°52.15 6.3 302 7.8 100140 46
2012-04-12 08:09:49 51°18.742 2°52.149 5.8 26 7.8 100140 46
2012-04-12 08:09:54 51°18.75 2°52.148 5.8 279 7.8 100140 46
2012-04-12 08:09:59 51°18.759 2°52.146 5.7 23 7.8 100150 44